User: anonymous   Login
Location: Unspecified
(0.0000°N, 0.0000°E)
Time: 12:40:35
(UTC+00:00)
Language:

Aussat K3 - Orbit

View from above orbital plane
View from above orbital plane
View from above satellite
View from above satellite

Ground track
Ground track

The orbit data is extracted from the following two-line orbital elements,

1 18350U 87078A   14296.70001184 -.00000243  00000-0  00000+0 0  1823
2 18350 013.8452 028.4518 0004665 232.6255 153.1279 00.98907596 98442
Epoch (UTC): 23 October 2014 16:48:01
Eccentricity: 0.0004665
inclination: 13.8452°
perigee height: 36153 km
apogee height: 36193 km
right ascension of ascending node: 28.4518°
argument of perigee: 232.6255°
revolutions per day: 0.98907596
mean anomaly at epoch: 153.1279°
orbit number at epoch: 9844

The dashed part of the orbit path shows where the satellite is in the earth's shadow,  

DLR